{"data":{"norad_id":62835,"epoch":"2026-05-24T12:53:13.591104Z","epoch_age_seconds":118124,"freshness":"FRESH","line1":"1 62835U 25019G   26144.53696286  .00192935  00000+0  14663-2 0  9993","line2":"2 62835  43.0000 209.3287 0002652 259.0234 101.0335 15.70937899 75805","mean_motion":15.70937899,"eccentricity":0.0002652,"inclination_deg":43,"raan_deg":209.3287,"arg_perigee_deg":259.0234,"mean_anomaly_deg":101.0335,"bstar":0.0014663,"rev_number":7580,"period_min":91.664985669812,"perigee_km":354.42931221594,"apogee_km":358.00121265593,"semimajor_km":6734.3522624359,"source":"CELESTRAK","updated_at":"2026-05-25T13:38:19.779197Z"}}